Paris, IL

6:37 PM CST on January 21, 2017 (GMT -0600)
Paris

Weather History for KPRG - January, 2014

Change the Weather History Date:

Thursday, January 30, 2014

  Actual Average (KHUF) Record (KHUF)
Temperature  
Mean Temperature 26 °F -  
Max Temperature 36 °F 37 °F 66 °F (2013)
Min Temperature 17 °F 19 °F -11 °F (1966)
Degree Days  
Heating Degree Days 38    
Moisture  
Dew Point 11 °F    
Average Humidity 50    
Maximum Humidity 66    
Minimum Humidity 37    
Precipitation  
Precipitation 0.00 in - - ()
Sea Level Pressure  
Sea Level Pressure 29.98 in    
Wind  
Wind Speed 15 mph (South)    
Max Wind Speed 33 mph    
Max Gust Speed 39 mph    
Visibility 10 miles    
Events      
Averages and records for this station are not official NWS values.
T = Trace of Precipitation, MM = Missing Value Source: NWS Daily Summary

Daily Weather History Graph

Daily Weather History Graph

Search for Another Location

Airport or City:

Trip Planner

Search our weather history database for the weather conditions in past years. The results will help you decide how hot, cold, wet, or windy it might be!

Date:

Astronomy

Jan. 30, 2014 Rise Set
Actual Time 7:00 AM CST 5:08 PM CST
Civil Twilight 6:31 AM CST 5:36 PM CST
Nautical Twilight 5:59 AM CST 6:09 PM CST
Astronomical Twilight 5:27 AM CST 6:40 PM CST
Moon 6:26 AM CST (1/30) 5:19 PM CST (1/30)
Length of Visible Light 11h 05m
Length of Day
10h 07m
Waning Crescent, 0% of the Moon is Illuminated
Jan 30
Waning Crescent
Jan 30
New
Feb 6
First Quarter
Feb 14
Full
Feb 22
Last Quarter

Hourly Weather History & Observations

Time (CST) Temp. Windchill Dew Point Humidity Pressure Visibility Wind Dir Wind Speed Gust Speed Precip Events Conditions
12:15 AM 18.1 °F 5.0 °F 7.7 °F 64% 30.15 in 10.0 mi South 12.7 mph - N/A   Clear
12:35 AM 18.1 °F 5.6 °F 7.7 °F 64% 30.15 in 10.0 mi South 11.5 mph - N/A   Clear
12:55 AM 18.0 °F 6.9 °F 7.5 °F 64% 30.16 in 10.0 mi South 9.2 mph - N/A   Clear
1:15 AM 18.0 °F 6.1 °F 7.5 °F 64% 30.14 in 10.0 mi South 10.4 mph - N/A   Clear
1:35 AM 17.8 °F 4.6 °F 7.5 °F 64% 30.14 in 10.0 mi South 12.7 mph - N/A   Clear
1:55 AM 17.6 °F 6.4 °F 7.5 °F 65% 30.13 in 10.0 mi South 9.2 mph - N/A   Clear
2:15 AM 17.2 °F 5.2 °F 7.5 °F 66% 30.13 in 10.0 mi SSE 10.4 mph - N/A   Clear
2:35 AM 17.8 °F 4.6 °F 7.5 °F 64% 30.12 in 10.0 mi SSE 12.7 mph - N/A   Clear
2:55 AM 17.6 °F 4.3 °F 7.5 °F 65% 30.11 in 10.0 mi SSE 12.7 mph - N/A   Clear
3:15 AM 18.0 °F 4.2 °F 7.3 °F 63% 30.11 in 10.0 mi SSE 13.8 mph - N/A   Clear
3:35 AM 17.8 °F 5.9 °F 7.3 °F 64% 30.12 in 10.0 mi South 10.4 mph - N/A   Clear
3:55 AM 17.6 °F 5.7 °F 7.5 °F 65% 30.12 in 10.0 mi South 10.4 mph - N/A   Clear
4:15 AM 17.2 °F 6.0 °F 7.5 °F 66% 30.12 in 10.0 mi South 9.2 mph - N/A   Clear
4:35 AM 17.2 °F 5.2 °F 7.5 °F 66% 30.11 in 10.0 mi SSE 10.4 mph - N/A   Clear
4:55 AM 17.6 °F 4.3 °F 7.7 °F 65% 30.10 in 10.0 mi SSE 12.7 mph - N/A   Clear
5:15 AM 18.0 °F 4.2 °F 7.5 °F 64% 30.10 in 10.0 mi SSE 13.8 mph - N/A   Clear
5:35 AM 18.0 °F 4.2 °F 7.5 °F 64% 30.10 in 10.0 mi South 13.8 mph - N/A   Clear
5:55 AM 18.1 °F 3.4 °F 7.5 °F 63% 30.09 in 10.0 mi South 16.1 mph 19.6 mph N/A   Clear
6:15 AM 18.1 °F 5.0 °F 7.7 °F 64% 30.10 in 10.0 mi South 12.7 mph - N/A   Clear
6:35 AM 19.0 °F 4.5 °F 7.7 °F 61% 30.09 in 10.0 mi South 16.1 mph 21.9 mph N/A   Clear
6:55 AM 19.2 °F 4.3 °F 7.7 °F 61% 30.08 in 10.0 mi South 17.3 mph 20.7 mph N/A   Clear
7:15 AM 20.1 °F 4.6 °F 8.1 °F 60% 30.07 in 10.0 mi South 19.6 mph 25.3 mph N/A   Clear
7:35 AM 21.0 °F 5.7 °F 8.2 °F 58% 30.05 in 10.0 mi South 19.6 mph 25.3 mph N/A   Clear
7:55 AM 21.7 °F 6.3 °F 8.2 °F 56% 30.05 in 10.0 mi South 20.7 mph 26.5 mph N/A   Clear
8:15 AM 22.1 °F 7.6 °F 8.6 °F 56% 30.06 in 10.0 mi South 18.4 mph 25.3 mph N/A   Clear
8:35 AM 22.3 °F 7.4 °F 8.8 °F 56% 30.03 in 10.0 mi South 19.6 mph 24.2 mph N/A   Clear
8:55 AM 23.9 °F 8.8 °F 9.0 °F 53% 30.04 in 10.0 mi South 21.9 mph 27.6 mph N/A   Clear
9:15 AM 24.3 °F 9.6 °F 9.3 °F 53% 30.01 in 10.0 mi South 20.7 mph - N/A   Clear
9:35 AM 24.8 °F 10.7 °F 9.5 °F 52% 30.01 in 10.0 mi South 19.6 mph 27.6 mph N/A   Clear
9:55 AM 25.7 °F 10.8 °F 10.0 °F 52% 30.00 in 10.0 mi South 23.0 mph 28.8 mph N/A   Clear
10:15 AM 27.1 °F 12.1 °F 10.4 °F 49% 29.98 in 10.0 mi South 25.3 mph 29.9 mph N/A   Clear
10:35 AM 27.9 °F 14.0 °F 10.9 °F 49% 29.96 in 10.0 mi South 21.9 mph 27.6 mph N/A   Clear
10:55 AM 29.1 °F 15.7 °F 11.1 °F 47% 29.97 in 10.0 mi South 21.9 mph 26.5 mph N/A   Clear
11:15 AM 31.5 °F 18.5 °F 11.8 °F 44% 29.96 in 10.0 mi South 23.0 mph 28.8 mph N/A   Clear
11:35 AM 32.5 °F 17.7 °F 11.5 °F 42% 29.94 in 10.0 mi South 33.4 mph 39.1 mph N/A   Clear
11:55 AM 32.0 °F 17.6 °F 10.9 °F 42% 29.92 in 10.0 mi South 29.9 mph 39.1 mph N/A   Clear
12:15 PM 32.4 °F 18.6 °F 11.3 °F 42% 29.90 in 10.0 mi South 27.6 mph 34.5 mph N/A   Clear
12:35 PM 32.4 °F 18.9 °F 10.9 °F 41% 29.87 in 10.0 mi South 26.5 mph 36.8 mph N/A   Clear
12:55 PM 32.5 °F 19.1 °F 11.3 °F 41% 29.85 in 10.0 mi South 26.5 mph 35.7 mph N/A   Clear
1:15 PM 33.1 °F 19.6 °F 11.5 °F 41% 29.85 in 10.0 mi South 27.6 mph 33.4 mph N/A   Clear
1:35 PM 33.8 °F 20.1 °F 11.5 °F 40% 29.83 in 10.0 mi South 29.9 mph 35.7 mph N/A   Clear
1:55 PM 34.0 °F 20.3 °F 11.1 °F 39% 29.82 in 10.0 mi South 29.9 mph 35.7 mph N/A   Clear
2:15 PM 34.0 °F 22.1 °F 12.2 °F 41% 29.81 in 10.0 mi South 21.9 mph 33.4 mph N/A   Clear
2:35 PM 34.7 °F 22.8 °F 11.7 °F 39% 29.81 in 10.0 mi South 23.0 mph 33.4 mph N/A   Clear
2:55 PM 35.1 °F 24.8 °F 12.0 °F 39% 29.82 in 10.0 mi South 17.3 mph 34.5 mph N/A   Clear
3:15 PM 35.6 °F 24.8 °F 11.8 °F 38% 29.84 in 10.0 mi South 19.6 mph 24.2 mph N/A   Clear
3:35 PM 35.6 °F 25.2 °F 11.3 °F 37% 29.85 in 10.0 mi SSW 18.4 mph 26.5 mph N/A   Clear
3:55 PM 35.2 °F 25.8 °F 11.7 °F 38% 29.85 in 10.0 mi South 15.0 mph 24.2 mph N/A   Mostly Cloudy
4:15 PM 35.2 °F 25.8 °F 12.0 °F 38% 29.85 in 10.0 mi South 15.0 mph 19.6 mph N/A   Overcast
4:35 PM 35.6 °F 25.9 °F 12.0 °F 38% 29.87 in 10.0 mi SSW 16.1 mph 21.9 mph N/A   Overcast
4:55 PM 35.6 °F 25.9 °F 12.0 °F 38% 29.87 in 10.0 mi SSW 16.1 mph - N/A   Mostly Cloudy
5:15 PM 35.4 °F 26.0 °F 12.2 °F 38% 29.88 in 10.0 mi SSW 15.0 mph 19.6 mph N/A   Overcast
5:35 PM 35.6 °F 26.6 °F 12.4 °F 38% 29.89 in 10.0 mi SSW 13.8 mph 19.6 mph N/A   Overcast
5:55 PM 35.6 °F 26.6 °F 12.7 °F 39% 29.87 in 10.0 mi South 13.8 mph - N/A   Overcast
6:15 PM 35.8 °F 26.9 °F 12.2 °F 38% 29.88 in 10.0 mi SSW 13.8 mph 19.6 mph N/A   Mostly Cloudy
6:35 PM 36.0 °F 26.3 °F 11.8 °F 37% 29.90 in 10.0 mi SSW 16.1 mph 20.7 mph N/A   Scattered Clouds
6:55 PM 35.6 °F 26.6 °F 11.8 °F 38% 29.90 in 10.0 mi SSW 13.8 mph 23.0 mph N/A   Clear
7:15 PM 35.6 °F 26.2 °F 11.8 °F 38% 29.91 in 10.0 mi SSW 15.0 mph - N/A   Mostly Cloudy
7:35 PM 35.2 °F 25.0 °F 12.0 °F 38% 29.90 in 10.0 mi SSW 17.3 mph - N/A   Overcast
7:55 PM 35.1 °F 26.9 °F 12.6 °F 40% 29.91 in 10.0 mi SSW 11.5 mph - N/A   Mostly Cloudy
8:15 PM 34.9 °F 25.3 °F 13.1 °F 41% 29.92 in 10.0 mi SSW 15.0 mph - N/A   Scattered Clouds
8:35 PM 34.7 °F 25.5 °F 13.8 °F 42% 29.92 in 10.0 mi SSW 13.8 mph - N/A   Mostly Cloudy
8:55 PM 34.7 °F 25.9 °F 14.0 °F 43% 29.92 in 10.0 mi SSW 12.7 mph - N/A   Overcast
9:15 PM 34.7 °F 25.9 °F 14.2 °F 43% 29.93 in 10.0 mi SSW 12.7 mph - N/A   Overcast
9:35 PM 34.2 °F 25.7 °F 14.7 °F 45% 29.94 in 10.0 mi SW 11.5 mph - N/A   Overcast
9:55 PM 34.2 °F 26.2 °F 14.9 °F 45% 29.95 in 10.0 mi SW 10.4 mph - N/A   Overcast
10:15 PM 34.0 °F 26.0 °F 14.9 °F 46% 29.95 in 10.0 mi SW 10.4 mph - N/A   Overcast
10:35 PM 33.6 °F 25.6 °F 15.1 °F 47% 29.96 in 10.0 mi SSW 10.4 mph - N/A   Overcast
10:55 PM 32.5 °F 25.5 °F 15.4 °F 49% 29.95 in 10.0 mi SW 8.1 mph - N/A   Scattered Clouds
11:15 PM 32.0 °F 24.2 °F 15.4 °F 51% 29.96 in 10.0 mi SSW 9.2 mph - N/A   Clear
11:35 PM 32.2 °F 24.4 °F 15.8 °F 51% 29.96 in 10.0 mi SSW 9.2 mph - N/A   Clear
11:55 PM 32.0 °F 24.8 °F 16.2 °F 52% 29.96 in 10.0 mi SSW 8.1 mph - N/A   Clear